AirNav   Everest Fuels
 
 990 users online  

9PA4 S & C 8th & Market Helistop
Philadelphia, Pennsylvania, USA

GOING TO PHILADELPHIA?


FAA INFORMATION EFFECTIVE 18 JUNE 2020

Location

FAA Identifier: 9PA4
Lat/Long: 39-57-12.4050N 075-08-58.6370W
39-57.206750N 075-08.977283W
39.9534458,-75.1496214
(estimated)
Elevation: 300 ft. / 91 m (estimated)
Variation: 11W (1985)
Time zone: UTC -4 (UTC -5 during Standard Time)
Zip code: 19106

Heliport Operations

Heliport use: Private use. Permission required prior to landing
Activation date: 03/1968
Control tower: no
ARTCC: NEW YORK CENTER
FSS: WILLIAMSPORT FLIGHT SERVICE STATION
Attendance: UNATNDD
Wind indicator: yes
Segmented circle: no

Heliport Communications

WX ASOS at PHL (6 nm SW): PHONE 215-492-9617
WX ASOS at PNE (10 nm NE): 121.15 (215-677-0146)
WX AWOS-3 at LOM (12 nm NW): 118.925 (215-646-1068)
WX ASOS at VAY (14 nm E): 119.325 (609-267-1176)
WX AWOS-3T at OQN (20 nm W): 121.4 ((610) 692-6190)

Nearby radio navigation aids

VOR radial/distance  VOR name  Freq  Var
OODr030/20.3WOODSTOWN VORTAC112.8010W
ARDr222/21.1YARDLEY VOR/DME108.2010W
MXEr094/24.1MODENA VORTAC113.2009W
PTWr140/24.8POTTSTOWN VORTAC116.5009W
GXUr274/25.7MC GUIRE VORTAC110.6012W
VCNr351/26.3CEDAR LAKE VOR/DME115.2010W
DQOr062/26.8DUPONT VORTAC114.0010W
RBVr254/33.6ROBBINSVILLE VORTAC113.8010W
CYNr294/34.1COYLE VORTAC113.4010W
ACYr328/39.9ATLANTIC CITY VORTAC117.1510W

 
NDB name  Hdg/Dist  Freq  Var  ID
AMBLER161/12.127512WING .. -. --.
RAINBOW010/32.136311WRNB .-. -. -...
LAKEHURST273/37.839611WNEL -. . .-..

Heliport Services

Airframe service: NONE
Powerplant service: NONE

Runway Information

Helipad H1

Dimensions: 60 x 60 ft. / 18 x 18 m
Surface: concrete, in fair condition
Latitude: 39-57.206750N
Longitude: 075-08.977283W
Elevation: 300.0 ft.
Traffic pattern: leftleft
Markings: none, in fair condition

Heliport Ownership and Management from official FAA records

Ownership: Privately-owned
Owner: STRAWBRIDGE & CLOTHIER
801 MARKET ST
PHILADELPHIA, PA 19107-3199
Phone 215-629-6504
Manager: RONALD B. AVELLINO
801 MARKET ST
PHILADELPHIA, PA 19107-3199
Phone 215-629-6501
VICE PRESIDENT STRAWBRIDGE & CLOTHIER

Additional Remarks

FOR CD CTC PHILADELPHIA APCH AT 800-354-9884.

Instrument Procedures

There are no published instrument procedures at 9PA4.

Some nearby airports with instrument procedures:

KPHL - Philadelphia International Airport (6 nm SW)
KPNE - Northeast Philadelphia Airport (10 nm NE)
KLOM - Wings Field Airport (12 nm NW)
KVAY - South Jersey Regional Airport (14 nm E)
19N - Camden County Airport (14 nm SE)
N14 - Flying W Airport (16 nm E)
17N - Cross Keys Airport (16 nm S)
7N7 - Spitfire Aerodrome (17 nm SW)
N10 - Perkiomen Valley Airport (20 nm NW)
KOQN - Brandywine Regional Airport (20 nm W)
 
Loc | Ops | Rwys | IFR | FBO | Links
Com | Nav | Svcs | Stats | Notes
Area around 9PA4 (S & C 8th & Market Helistop)
 
Road maps at: MapQuest Bing Google
 
Aerial photo
No photo
 
Sectional chart

 
Airport distance calculator
Flying to S & C 8th & Market Helistop? Find the distance to fly.

From to 9PA4

Sunrise and sunset
Times for 11-Jul-2020
 Local
(UTC-4)
 Zulu
(UTC)
Morning civil twilight05:1109:11
Sunrise05:4309:43
Sunset20:2900:29
Evening civil twilight21:0101:01

Current date and time
Zulu (UTC)  11-Jul-2020 18:03:12
Local (UTC-4)  11-Jul-2020 14:03:12
 
METAR
KPHL 
6nm SW 
111754Z 31010KT 10SM -RA BKN035 BKN050CB BKN080 BKN140 BKN240 28/23 A2969 RMK AO2 RAB43 SLP052 CB OHD MOV NE P0000 60000 T02830228 10294 20250 58009
KPNE 
10nm NE 
111754Z 20007KT 10SM FEW034 FEW042 29/22 A2969 RMK AO2 SLP052 T02890222 10300 20239 58013
KLOM 
12nm NW 
111755Z AUTO 17011KT 10SM SCT025 SCT033 BKN046 27/24 A2970 RMK AO2 P0001 T02740236 10293 20242 60007
KVAY 
15nm E 
ASOS 119.325 609-267-1176
111754Z AUTO VRB04KT 10SM CLR 31/22 A2968 RMK AO2 SLP049 T03060217 10306 20250 58012
KOQN 
20nm W 
111755Z AUTO 23005KT 10SM BKN030 BKN037 BKN095 30/22 A2970 RMK AO2
TAF
KPHL 
6nm SW 
111738Z 1118/1224 21008KT P6SM -SHRA VCTS SCT025 BKN050CB TEMPO 1118/1120 2SM +TSRA OVC025CB FM112300 27008KT P6SM SCT050 FM120700 26004KT P6SM SCT250 FM121400 25008KT P6SM SCT050
KPNE 
10nm NE 
111738Z 1118/1218 21008KT P6SM -SHRA VCTS SCT025 BKN050CB TEMPO 1118/1120 2SM +TSRA OVC025CB FM112300 27006KT P6SM SCT050 FM120700 27003KT P6SM SCT250 FM121200 26007KT P6SM SCT050
NOTAMs
Click for the latest NOTAMs
NOTAMs are issued by the DoD/FAA and will open in a separate window not controlled by AirNav.

 

 
 

Would you like to see your business listed on this page?

 If your business provides an interesting product or service to pilots, flight crews, aircraft, or users of the S & C 8th & Market Helistop, you should consider listing it here.  To start the listing process, click on the button below
 
Add a business
 

Other Pages about S & C 8th & Market Helistop

Update a link
 
Copyright © AirNav, LLC. All rights reserved. Privacy Policy  Contact